Location: Bottens
(46.6171°N, 6.6605°E)
Time: 19:46:13
(UTC+00:00)

CZ-4B R/B - Pass Details

Date: 20 June 2021
Orbit: 702 x 802 km, 98.9° (Epoch: 23 July)

Event Time Altitude Azimuth Distance (km) Brightness Sun altitude
Rises 02:51:26 0° 15° (NNE) 3,326 8.0 -7.1°
Reaches altitude 10° 02:53:48 10° 16° (NNE) 2,389 7.2 -6.8°
Maximum altitude 02:59:06 82° 104° (ESE) 809 3.7 -6.2°
Drops below altitude 10° 03:04:18 10° 193° (SSW) 2,337 5.5 -5.5°
Enters shadow 03:06:25 - 194° (SSW) 3,181 6.2 -5.2°
